User: anonymous   Login
Location: NJAA Observatory
(40.6819°N, 74.8979°W)
Time: 14:04:07
(UTC-05:00)
Language:

Cosmos 1633 - Orbit

View from above orbital plane
View from above orbital plane
View from above satellite
View from above satellite

Ground track
Ground track

The orbit data is extracted from the following two-line orbital elements,

1 15592U 85020A   14324.64823787  .00009835  00000-0  44621-3 0  6033
2 15592 082.5395 176.6380 0015117 245.3614 170.3438 15.20581121621042
Epoch (UTC): 20 November 2014 15:33:27
Eccentricity: 0.0015117
inclination: 82.5395°
perigee height: 493 km
apogee height: 514 km
right ascension of ascending node: 176.6380°
argument of perigee: 245.3614°
revolutions per day: 15.20581121
mean anomaly at epoch: 170.3438°
orbit number at epoch: 62104

The dashed part of the orbit path shows where the satellite is in the earth's shadow,  

DLR